SL-19 DEB, 23486

Orbit data source: Space-Track

SL-19 DEB, 23486 is space debris in LEO originally from a launch on Mon, 26 Dec 1994 UTC launched from the Tyuratam Missile And Space Complex (TTMTR). Debris objects in space refer to the collection of defunct objects orbiting the Earth. Examples of debris include non-operational satellites, rocket bodies, and fragments generated from explosions, collisions, or faulty payload assembly.

Loading next visibility...
Identifier
23486, 1994-085J
Orbit
LEO
Country
Flag of CISCIS
Related business
Manufacturer
Unknown
Mission
Spacecraft
Bus & Motor
Unknown
Mass
Unknown
Launch date (UTC)
1994-12-26 (31 years ago)
Launch vehicle
Unknown
Launch site
Tyuratam Missile And Space Complex (TTMTR)
Object type
Payload
Rocket body
Debris
Shape & HBR
Unknown shape, 0.1 m
Radar Cross Section
Small (<0.1 m²)

Expand to show TLE details & history
Last TLE update: 2 days ago

TLE from 2 days ago
0 SL-19 DEB
1 23486U 94085J   26043.24447865 -.00000358  00000-0 -90848-2 0  9993
2 23486  64.9174 324.1195 0182454 265.8121 257.0206 11.25707059589078
Epoch: 2026-02-12T05:52Z
TLE epoch observation values (Epoch: 2026-02-12T05:52:02.955Z)
Latitude
17.32816°
Longitude
-94.55041°
Altitude
2,069.869 km
Speed
6.856 km/s
True Right ascension
09h 03m 02s
True Declination
17° 14' 45"
Sunlit
Object was in full shadow at epoch
Visualization orbit readout
Latitude
Unknown
Longitude
Unknown
Altitude
Unknown
Speed
Unknown
Apparent Right ascension
Unknown
Apparent Declination
Unknown
Sunlit
N/A
Visualization observer readout
Local Sidereal Time
18:38:53
Azimuth
Unknown
Elevation
Unknown
Doppler factor
Unknown
Orbital elements
Apogee altitude
2,183.864 km
Perigee altitude
1,877.028 km
Semi-major axis
8,408.583 km
Eccentricity
0.01825
Inclination
64.9174°
RAAN
324.1195°
Arg. of periapsis
265.8121°
True anomaly
254.99406°
Mean anomaly
257.0206°
Eccentric anomaly
256.00624°
Mean motion
2.81487 °/min
Orbital period
127.89 mins
BSTAR
-0.0090848
Loading maneuver chart data...
Computing Atmospheric mass density...
Loading historical data...
Loading historical data...
Loading historical data...
Loading historical data...
Loading historical data...
Loading historical data...
Loading historical data...

Documentation

Showing up to 5 results
|